Location: Burbank
(38.7788°N, 114.0429°W)
Time: 00:20:00
(UTC+00:00)

Explorer 7 - Pass Details

Date: 17 May 2026
Orbit: 426 x 534 km, 50.2° (Epoch: 10 June)

Event Time Altitude Azimuth Distance (km) Brightness Sun altitude
Exits shadow 11:43:34 10° 244° (WSW) 1,578 8.5 -7.4°
Reaches altitude 10° 11:43:39 10° 244° (WSW) 1,548 8.4 -7.4°
Maximum altitude 11:47:06 63° 326° (NNW) 504 6.6 -6.8°
Drops below altitude 10° 11:50:42 10° 49° (NE) 1,611 10.9 -6.2°
Sets 11:52:55 0° 52° (NE) 2,510 12.7 -5.8°
